TimeCST,TemperatureF,Dew PointF,Humidity,Sea Level PressureIn,VisibilityMPH,Wind Direction,Wind SpeedMPH,Gust SpeedMPH,PrecipitationIn,Events,Conditions,WindDirDegrees,DateUTC
12:00 AM,-10,,,29.47,1,West,13.8,,,,,280,2013-01-06 06:00:00
12:00 AM,-9.4,-9999,N/A,29.47,1.1,West,13.8,19.6,N/A,,Unknown,280,2013-01-06 06:00:00
12:08 AM,-9.4,-9999,N/A,29.44,0.6,West,18.4,-,N/A,,Unknown,270,2013-01-06 06:08:00
12:42 AM,-11.2,-9999,N/A,29.45,0.6,WNW,23.0,-,N/A,,Unknown,290,2013-01-06 06:42:00
12:51 AM,-9.4,-9999,N/A,29.46,1.0,WNW,19.6,-,N/A,,Unknown,300,2013-01-06 06:51:00
12:53 AM,-9.4,-9999,N/A,29.46,1.1,WNW,18.4,-,N/A,,Unknown,300,2013-01-06 06:53:00
12:59 AM,-11.2,-9999,N/A,29.47,2.5,WNW,17.3,-,N/A,,Unknown,300,2013-01-06 06:59:00
1:00 AM,-11.2,-9999,N/A,29.49,2.8,NW,17.3,-,N/A,,Unknown,310,2013-01-06 07:00:00
1:10 AM,-11.2,-9999,N/A,29.46,5.0,WNW,18.4,-,N/A,,Unknown,300,2013-01-06 07:10:00
1:14 AM,-11.2,-9999,N/A,29.46,5.0,WNW,19.6,-,N/A,,Unknown,300,2013-01-06 07:14:00
2:00 AM,-11.2,-9999,N/A,29.50,6.0,WNW,17.3,-,N/A,,Unknown,300,2013-01-06 08:00:00
3:00 AM,-12,,,29.50,6,WNW,9.2,,,,,290,2013-01-06 09:00:00
3:00 AM,-11.2,-9999,N/A,29.50,6.0,WNW,10.4,-,N/A,,Unknown,290,2013-01-06 09:00:00
4:00 AM,-11.2,-9999,N/A,29.50,4.0,West,5.8,-,N/A,,Unknown,260,2013-01-06 10:00:00
6:00 AM,-12,,,29.49,7,West,8.1,,,,,260,2013-01-06 12:00:00
7:00 AM,-13.0,-9999,N/A,29.47,9.0,WSW,5.8,-,N/A,,Unknown,240,2013-01-06 13:00:00
7:33 AM,-13.0,-9999,N/A,29.44,5.0,WSW,5.8,-,N/A,,Unknown,240,2013-01-06 13:33:00
7:36 AM,-13.0,-9999,N/A,29.44,3.0,SW,9.2,-,N/A,,Unknown,230,2013-01-06 13:36:00
7:40 AM,-13.0,-9999,N/A,29.44,2.0,SW,15.0,-,N/A,,Unknown,220,2013-01-06 13:40:00
8:00 AM,-13.0,-9999,N/A,29.46,2.0,SW,11.5,-,N/A,,Unknown,230,2013-01-06 14:00:00
8:10 AM,-13.0,-9999,N/A,29.43,2.1,SW,12.7,-,N/A,,Unknown,230,2013-01-06 14:10:00
8:13 AM,-13.0,-9999,N/A,29.43,1.8,SW,17.3,-,N/A,,Unknown,230,2013-01-06 14:13:00
8:20 AM,-13.0,-9999,N/A,29.43,1.4,SW,16.1,-,N/A,,Unknown,230,2013-01-06 14:20:00
8:22 AM,-13.0,-9999,N/A,29.43,1.4,SW,15.0,20.7,N/A,,Unknown,230,2013-01-06 14:22:00
8:25 AM,-13.0,-9999,N/A,29.43,1.4,SW,15.0,20.7,N/A,,Unknown,230,2013-01-06 14:25:00
8:32 AM,-13.0,-9999,N/A,29.43,1.5,SW,16.1,-,N/A,,Unknown,230,2013-01-06 14:32:00
8:34 AM,-13.0,-9999,N/A,29.43,1.5,SW,16.1,-,N/A,,Unknown,230,2013-01-06 14:34:00
8:43 AM,-13.0,-9999,N/A,29.43,2.0,SW,13.8,-,N/A,,Unknown,230,2013-01-06 14:43:00
8:51 AM,-13.0,-9999,N/A,29.43,2.0,SW,15.0,-,N/A,,Unknown,230,2013-01-06 14:51:00
8:52 AM,-13.0,-9999,N/A,29.43,1.6,SW,13.8,-,N/A,,Unknown,230,2013-01-06 14:52:00
8:54 AM,-13.0,-9999,N/A,29.43,1.2,SW,15.0,-,N/A,,Unknown,230,2013-01-06 14:54:00
9:00 AM,-14,,,29.45,1,SW,15.0,,,,,230,2013-01-06 15:00:00
9:11 AM,-14.8,-9999,N/A,29.42,1.0,SW,15.0,-,N/A,,Unknown,230,2013-01-06 15:11:00
9:28 AM,-14.8,-9999,N/A,29.41,1.2,SW,16.1,-,N/A,,Unknown,230,2013-01-06 15:28:00
9:31 AM,-14.8,-9999,N/A,29.41,1.2,SW,15.0,-,N/A,,Unknown,230,2013-01-06 15:31:00
9:32 AM,-14.8,-9999,N/A,29.41,1.2,SW,15.0,-,N/A,,Unknown,230,2013-01-06 15:32:00
9:55 AM,-14.8,-9999,N/A,29.41,1.4,SW,11.5,-,N/A,,Unknown,230,2013-01-06 15:55:00
9:58 AM,-14.8,-9999,N/A,29.41,1.4,SW,12.7,-,N/A,,Unknown,230,2013-01-06 15:58:00
9:59 AM,-14.8,-9999,N/A,29.41,1.4,SW,13.8,-,N/A,,Unknown,230,2013-01-06 15:59:00
10:00 AM,-14.8,-9999,N/A,29.44,2.0,SW,15.0,-,N/A,,Unknown,230,2013-01-06 16:00:00
10:04 AM,-14.8,-9999,N/A,29.41,2.0,SW,13.8,-,N/A,,Unknown,230,2013-01-06 16:04:00
10:40 AM,-14.8,-9999,N/A,29.40,2.0,WSW,6.9,-,N/A,,Unknown,240,2013-01-06 16:40:00
11:00 AM,-14.8,-9999,N/A,29.42,2.0,SW,11.5,-,N/A,,Unknown,230,2013-01-06 17:00:00
11:49 AM,-14.8,-9999,N/A,29.39,1.5,WSW,9.2,-,N/A,,Unknown,250,2013-01-06 17:49:00
11:50 AM,-14.8,-9999,N/A,29.39,1.5,WSW,8.1,-,N/A,,Unknown,250,2013-01-06 17:50:00
11:54 AM,-14.8,-9999,N/A,29.39,1.4,WSW,6.9,-,N/A,,Unknown,250,2013-01-06 17:54:00
12:00 PM,-15,,,29.42,1,WSW,6.9,,,,,250,2013-01-06 18:00:00
12:00 PM,-14.8,-9999,N/A,29.42,1.1,WSW,6.9,-,N/A,,Unknown,250,2013-01-06 18:00:00
12:07 PM,-14.8,-9999,N/A,29.39,1.0,WSW,8.1,-,N/A,,Unknown,250,2013-01-06 18:07:00
12:21 PM,-14.8,-9999,N/A,29.39,1.0,WSW,9.2,-,N/A,,Unknown,250,2013-01-06 18:21:00
12:45 PM,-14.8,-9999,N/A,29.39,1.2,West,5.8,-,N/A,,Unknown,270,2013-01-06 18:45:00
1:00 PM,-14.8,-9999,N/A,29.42,1.4,West,5.8,-,N/A,,Unknown,270,2013-01-06 19:00:00
1:08 PM,-14.8,-9999,N/A,29.39,1.4,West,6.9,-,N/A,,Unknown,260,2013-01-06 19:08:00
1:09 PM,-14.8,-9999,N/A,29.39,1.4,West,8.1,-,N/A,,Unknown,260,2013-01-06 19:09:00
1:15 PM,-14.8,-9999,N/A,29.39,1.5,West,6.9,-,N/A,,Unknown,260,2013-01-06 19:15:00
1:21 PM,-14.8,-9999,N/A,29.39,2.1,West,6.9,-,N/A,,Unknown,260,2013-01-06 19:21:00
1:55 PM,-14.8,-9999,N/A,29.38,1.4,West,10.4,-,N/A,,Unknown,260,2013-01-06 19:55:00
2:00 PM,-14.8,-9999,N/A,29.41,1.4,West,8.1,-,N/A,,Unknown,260,2013-01-06 20:00:00
2:22 PM,-14.8,-9999,N/A,29.38,1.4,West,8.1,-,N/A,,Unknown,260,2013-01-06 20:22:00
2:28 PM,-14.8,-9999,N/A,29.38,1.4,West,8.1,-,N/A,,Unknown,260,2013-01-06 20:28:00
2:29 PM,-14.8,-9999,N/A,29.38,1.5,West,9.2,-,N/A,,Unknown,260,2013-01-06 20:29:00
2:30 PM,-14.8,-9999,N/A,29.38,1.5,West,8.1,-,N/A,,Unknown,260,2013-01-06 20:30:00
2:34 PM,-14.8,-9999,N/A,29.38,1.6,West,9.2,-,N/A,,Unknown,260,2013-01-06 20:34:00
2:41 PM,-14.8,-9999,N/A,29.38,2.2,West,8.1,-,N/A,,Unknown,260,2013-01-06 20:41:00
2:46 PM,-14.8,-9999,N/A,29.38,2.5,WSW,6.9,-,N/A,,Unknown,250,2013-01-06 20:46:00
2:47 PM,-14.8,-9999,N/A,29.38,2.5,WSW,5.8,-,N/A,,Unknown,250,2013-01-06 20:47:00
2:55 PM,-14.8,-9999,N/A,29.38,2.1,WSW,5.8,-,N/A,,Unknown,250,2013-01-06 20:55:00
3:00 PM,-15,,,29.41,2,WSW,6.9,,,,,250,2013-01-06 21:00:00
3:00 PM,-14.8,-9999,N/A,29.41,2.1,West,8.1,-,N/A,,Unknown,260,2013-01-06 21:00:00
3:24 PM,-14.8,-9999,N/A,29.38,2.1,WSW,4.6,-,N/A,,Unknown,240,2013-01-06 21:24:00
3:35 PM,-14.8,-9999,N/A,29.38,2.1,West,6.9,-,N/A,,Unknown,260,2013-01-06 21:35:00
3:42 PM,-14.8,-9999,N/A,29.38,1.6,West,5.8,-,N/A,,Unknown,260,2013-01-06 21:42:00
3:46 PM,-14.8,-9999,N/A,29.38,1.5,West,6.9,-,N/A,,Unknown,270,2013-01-06 21:46:00
4:00 PM,-14.8,-9999,N/A,29.41,2.0,WSW,6.9,-,N/A,,Unknown,250,2013-01-06 22:00:00
4:16 PM,-14.8,-9999,N/A,29.38,3.5,WSW,3.5,-,N/A,,Unknown,250,2013-01-06 22:16:00
4:19 PM,-14.8,-9999,N/A,29.38,3.0,West,4.6,-,N/A,,Unknown,260,2013-01-06 22:19:00
4:21 PM,-14.8,-9999,N/A,29.38,2.5,West,3.5,-,N/A,,Unknown,260,2013-01-06 22:21:00
4:39 PM,-14.8,-9999,N/A,29.38,3.0,WSW,3.5,-,N/A,,Unknown,250,2013-01-06 22:39:00
4:46 PM,-14.8,-9999,N/A,29.39,4.0,WSW,4.6,-,N/A,,Unknown,250,2013-01-06 22:46:00
5:00 PM,-14.8,-9999,N/A,29.41,4.0,WSW,4.6,-,N/A,,Unknown,250,2013-01-06 23:00:00
6:00 PM,-17,,,29.41,9,WSW,5.8,,,,,250,2013-01-07 00:00:00
6:00 PM,-16.6,-9999,N/A,29.41,9.0,WSW,5.8,-,N/A,,Unknown,250,2013-01-07 00:00:00
7:00 PM,-18.4,-9999,N/A,29.41,9.0,WSW,8.1,-,N/A,,Unknown,240,2013-01-07 01:00:00
8:00 PM,-20.2,-9999,N/A,29.41,8.0,WSW,8.1,-,N/A,,Unknown,250,2013-01-07 02:00:00
9:00 PM,-22,,,29.42,9,WSW,8.1,,,,,250,2013-01-07 03:00:00
9:00 PM,-22.0,-9999,N/A,29.42,9.0,WSW,8.1,-,N/A,,Unknown,250,2013-01-07 03:00:00
10:00 PM,-23.8,-9999,N/A,29.42,9.0,West,3.5,-,N/A,,Unknown,260,2013-01-07 04:00:00
11:00 PM,-23.8,-9999,N/A,29.42,9.0,WSW,5.8,-,N/A,,Unknown,240,2013-01-07 05:00:00